Regional Weather Roundup
Issued by NWS Upton, NY

Current Version | Previous Version | Graphics & Text | Print | Product List | Glossary Off
Versions: 1 2 3 4 5 6 7 8 9 10 11 12 13 14 15 16 17 18 19 20 21 22 23 24 25 26 27 28 29

000
ASUS41 KOKX 291405
RWROKX

REGIONAL WEATHER ROUNDUP
NATIONAL WEATHER SERVICE NEW YORK NY
1000 AM EDT WED OCT 29 2014

NOTE: "FAIR" INDICATES FEW OR NO CLOUDS BELOW 12,000 FEET WITH NO
SIGNIFICANT WEATHER AND/OR OBSTRUCTIONS TO VISIBILITY.

NYZ071-072-176-178-NJZ106-104-291500-
NEW YORK CITY METRO AREA


CITY           SKY/WX    TMP DP  RH WIND       PRES   REMARKS
CENTRAL PARK   PTSUNNY   66  56  70 W6        29.91S
LAGUARDIA APRT CLOUDY    68  57  68 VRB5      29.88S
KENNEDY INTL   CLOUDY    64  58  80 SW8       29.90S
NEWARK/LIBERTY PTSUNNY   66  59  78 W5        29.88F
BRNX BOT. GARD   N/A     64  57  77 SW8       29.89S
TETERBORO      PTSUNNY   64  57  78 CALM      29.87F
$$

NYZ177-179-078>081-291500-
LONG ISLAND NEW YORK

CITY           SKY/WX    TMP DP  RH WIND       PRES   REMARKS
FARMINGDALE    PTSUNNY   66  59  78 SW6       29.89F
ISLIP          CLOUDY    66  59  78 SW10      29.88S
SHIRLEY        PTSUNNY   66  60  81 SW12      29.90S
WESTHAMPTON    PTSUNNY   67  61  81 SW14G21   29.91S
MONTAUK POINT    N/A     67  62  84 SW10G18   29.90F
$$

NYZ052-065-067-291500-
HUDSON VALLEY

CITY           SKY/WX    TMP DP  RH WIND       PRES   REMARKS
WHITE PLAINS   CLOUDY    63  58  83 VRB3      29.88S HAZE
NEWBURGH       PTSUNNY   63  57  82 SW6       29.88F
MONTGOMERY     CLOUDY    62  56  80 SW5       29.87S
POUGHKEEPSIE   CLOUDY    62  55  77 VRB3      29.86F
ALBANY         LGT RAIN  59  53  80 CALM      29.87R
$$

NJZ001-105-106-008-010-013-015-019>022-104-291500-
NEW JERSEY

CITY           SKY/WX    TMP DP  RH WIND       PRES   REMARKS
NEWARK/LIBERTY PTSUNNY   66  59  78 W5        29.88F
TETERBORO      PTSUNNY   64  57  78 CALM      29.87F
CALDWELL       CLOUDY    61  55  81 CALM      29.89F
MORRISTOWN     PTSUNNY   63  59  88 CALM      29.89F
SOMERVILLE     CLOUDY    58  53  84 CALM      29.88S
SUSSEX         CLOUDY    59  54  83 CALM      29.90R
ANDOVER          N/A     58  56  93 CALM      29.90S
TRENTON        PTSUNNY   64  58  80 W3        29.90S HAZE
MILLVILLE      MOSUNNY   67  59  75 VRB5      29.92S
ATLANTIC CITY  MOSUNNY   67  60  78 SW8       29.92S
WRIGHTSTOWN    MOSUNNY   65  59  79 W9        29.88F
TOMS RIVER     MOSUNNY   66  59  77 SW9       29.91S
BELMAR         MOSUNNY   64  55  72 SW9       29.90S
$$

PAZ047>061-062-071-291500-
EASTERN PENNSYLVANIA

CITY           SKY/WX    TMP DP  RH WIND       PRES   REMARKS
PHILADELPHIA   CLOUDY    65  58  78 SW7       29.91S
ALLENTOWN      PTSUNNY   58  53  84 W7        29.92R
SCRANTON       LGT RAIN  55  47  74 SW10      29.93S
$$

CTZ002-004>006-009-010-012-RIZ004-006-007-MAZ004-011-015-291500-
SOUTHERN NEW ENGLAND
 IN CT

CITY           SKY/WX    TMP DP  RH WIND       PRES   REMARKS
BRADLEY INTL   CLOUDY    60  58  92 S6        29.85F FOG
HARTFORD       CLOUDY    63  59  87 S7        29.86S
DANBURY        CLOUDY    62  55  77 W7        29.89S
WTRBRY/OXFORD  NOT AVBL
BRIDGEPORT     PTSUNNY   63  59  87 W3        29.88S
MERIDEN        CLOUDY    60  58  92 MISG      29.88S FOG
NEW HAVEN      CLOUDY    64  59  83 SW5       29.88S
CHESTER        FAIR      64  61  88 SW5       29.89S
GROTON         PTSUNNY   64  62  93 SW8       29.88F
WILLIMANTIC    CLOUDY    56  54  93 CALM      29.87F

 IN RI

CITY           SKY/WX    TMP DP  RH WIND       PRES   REMARKS
PROVIDENCE     PTSUNNY   67  61  81 SW12      29.87F
BLOCK ISLAND   PTSUNNY   66  61  82 SW15G21   29.89F
WESTERLY       PTSUNNY   66  61  84 SW14      29.89F

 IN MA

CITY           SKY/WX    TMP DP  RH WIND       PRES   REMARKS
BOSTON         CLOUDY    62  58  86 S3        29.85F
WORCESTER      CLOUDY    58  57  97 SW10      29.86F FOG
WESTFIELD      FOG       54  53  97 CALM      29.85F VSB 1/4
PROVINCETOWN   CLOUDY    64   9  11 SW14      29.88S
NANTUCKET      PTSUNNY   64  61  90 S14       29.92F
$$

ANZ330-335-338-340-345-350-353-355-291500-
COASTAL MARINE OBSERVATIONS


STATION/POSITION TIME  SKY/WX   TEMP    WIND        PRES    VSBY  WAVE
                                AIR SEA DIR/SP/G                  HT/PER
                 (UTC)          (F)     (DEG/KT/KT) (MB)    (MI)  (FT/S)
NY HARB ENTRANCE 1400            63 62  220/ 12/ 14 1012.6          3/ 6
4S FIRE IS       1400               62                N/A           5/ 6
20S FIRE ISLAND  1400            64 62  210/ 16/ 19 1012.1          5/ 6
23SW MTP         1400                                 N/A           6/ 7
HUDSON CANYON    1400            66 65  220/ 17/ 21 1013.1          5/ 6
EXECUTION ROCKS  1400            65 60  220/  6/  6   N/A
WESTERN LI SOUND 1400            61      CALM  /  2   N/A           0
CENTRAL LI SOUND 1300            63 61  210/ 10/ 12   N/A           1/ 3
EASTERN LI SOUND 1300            64 62  220/ 12/ 16   N/A
ROBBINS REEF     1400            65     260/  4/  5 1010.9
$$


>>>>>>>>>>>>>>>>>>>>>>>>>>>> KEY <<<<<<<<<<<<<<<<<<<<<<<<<<<
>                                                          <
>     SKY/WX - SKY CONDITION/PRESENT WEATHER               <
>     TMP    - TEMPERATURE IN FAHRENHEIT                   <
>     DP     - DEWPOINT IN FAHRENHEIT                      <
>     RH     - RELATIVE HUMIDITY IN PERCENT                <
>     WIND   - DIRECTION AND SPEED IN MPH                  <
>     PRES   - MEAN SEA LEVEL PRESSURE IN INCHES OF HG     <
>     WCI    - WIND CHILL INDEX                            <
>     VSB    - VISIBILITY IN MILES                         <
>     HX     - HEAT INDEX                                  <
>     TC     - TEMPERATURE IN CELSIUS                      <
>     VRB    - VARIABLE WIND DIRECTION                     <
>                                                          <
>>>>>>>>>>>>>>>>>>>>>>>>>>>> KEY <<<<<<<<<<<<<<<<<<<<<<<<<<<





USA.gov is the U.S. government's official web portal to all federal, state and local government web resources and services.